STARLINK-30209, 57307

Orbit data source: Space-Track

STARLINK-30209, 57307 is a payload satellite owned by SpaceX/Seattle (US) in LEO that was launched on Mon, 10 Jul 2023 UTC via an FALCON 9 launch vehicle from the Air Force Eastern Test Range (AFETR). Payload-class satellites include a variety of spacecraft equipped with specific instruments for various scientific and technological missions. These include communications satellites like Starlink; space stations such as the ISS; scientific satellites like the Hubble; Earth observation satellites from companies like Planet Labs, Umbra, and HawkEye 360; GPS; miniature CubeSats for education and research; and military/defense satellites.

Loading next visibility...
Identifier
57307, 2023-096T
Orbit
LEO
Country
Flag of USUS
Related business
Manufacturer
SpaceX/Seattle
Mission
Partially operational Commercial Communications
Bus & Motor
STARLINK V2M, Unknown motor
Mass
730 kg wet, ~700 kg dry
Launch date (UTC)
2023-07-10 (2 years ago)
Launch vehicle
FALCON 9
Launch site
Air Force Eastern Test Range (AFETR)
Object type
Payload
Rocket body
Debris
Shape & HBR
Box + 2 Pan, 17.7 m
Radar Cross Section
33.884 m², Large (>1 m²)

Expand to show TLE details & history
Last TLE update: 14 hours ago

TLE from 14 hours ago
0 STARLINK-30209
1 57307U 23096T   25341.00002315  .00239412  00000-0  53999-2 0  9996
2 57307  42.9861 333.0154 0029186 106.7788 137.3233 15.41170932  5871
Epoch: 2025-12-07T00:00Z
TLE epoch observation values (Epoch: 2025-12-07T00:00:02.000Z)
Latitude
-38.08867°
Longitude
133.7346°
Altitude
468.561 km
Speed
7.624 km/s
True Right ascension
13h 59m 03s
True Declination
-37° 54' 53"
Sunlit
Object was in daylight at epoch
Visualization orbit readout
Latitude
Unknown
Longitude
Unknown
Altitude
Unknown
Speed
Unknown
Apparent Right ascension
Unknown
Apparent Declination
Unknown
Sunlit
N/A
Visualization observer readout
Local Sidereal Time
12:17:58
Azimuth
Unknown
Elevation
Unknown
Doppler factor
Unknown
Orbital elements
Apogee altitude
464.524 km
Perigee altitude
424.698 km
Semi-major axis
6,822.748 km
Eccentricity
0.00292
Inclination
42.9861°
RAAN
333.0154°
Arg. of periapsis
106.7788°
True anomaly
137.5494°
Mean anomaly
137.3233°
Eccentric anomaly
137.43641°
Mean motion
3.85127 °/min
Orbital period
93.48 mins
BSTAR
0.0053999
Loading maneuver chart data...
Computing Atmospheric mass density...
Loading historical data...
Loading historical data...
Loading historical data...
Loading historical data...
Loading historical data...
Loading historical data...
Loading historical data...

Documentation

Showing up to 5 results
|